CAPE
0 0 0 0 0 0 0 0 0 1 0 0 0 0 0 0 0 0 0 0 0 0 0 0 0 0 0 0 0 0 0 0 0 0 2 4 6 8
0 0 0 0 0 0 0 0 0 0 0 0 0 0 0 0 0 0 0 0 0 0 0 0 0 0 0 0 0 0 0 0 0 0 2 5 10 13
0 0 0 0 0 0 0 0 0 0 0 0 0 0 0 0 0 0 0 0 0 0 0 0 0 0 0 0 0 0 0 0 0 0 0 6 8 13
0 0 0 0 0 0 0 0 0 0 0 0 0 0 0 0 0 0 0 0 0 0 0 0 0 0 0 0 0 0 0 0 0 0 0 0 1 3
0 0 0 0 0 0 0 0 0 0 0 0 0 0 0 0 0 0 0 0 0 0 0 0 0 0 0 0 0 0 0 0 0 0 0 0 0 0
0 0 0 0 0 0 1 0 0 0 5 4 5 5 0 0 0 2 0 0 0 0 0 0 0 0 0 0 0 0 0 0 0 11 15 6 4 5
0 0 0 0 0 2 5 2 4 5 2 0 0 0 0 0 0 0 0 0 0 0 0 0 0 0 0 0 0 0 0 0 0 0 6 11 17 8
0 0 0 0 0 0 5 8 13 7 0 0 0 0 0 0 0 0 0 0 0 0 0 0 0 0 0 0 0 0 0 0 0 0 0 6 10 5
0 0 0 0 0 0 0 0 0 0 0 0 0 0 0 0 0 0 0 0 0 0 0 0 0 0 0 0 0 0 0 0 0 0 0 4 7 6
0 0 0 0 0 0 0 0 0 0 0 0 0 0 0 0 0 0 0 0 0 0 0 0 0 0 0 0 0 0 0 0 0 0 2 9 6 6
0 0 0 0 0 0 0 0 0 0 0 0 0 0 0 0 0 0 0 0 0 0 0 0 0 0 0 0 0 0 0 0 0 0 0 7 2 1
0 0 0 0 0 0 0 0 0 0 0 0 0 0 0 0 0 0 0 0 0 0 0 0 0 0 0 0 0 0 0 0 0 0 0 1 0 1
0 0 0 0 0 0 0 0 0 0 0 0 0 0 0 0 2 0 0 0 0 0 0 0 0 0 0 0 0 0 0 0 0 0 0 0 0 3
0 0 0 0 0 0 0 0 0 0 0 0 0 0 0 0 0 0 0 0 0 0 0 0 0 0 0 0 0 0 0 0 0 0 0 0 0 0
0 0 0 0 0 0 0 0 0 0 0 0 0 0 0 1 0 0 4 0 0 0 0 0 0 0 0 0 0 0 0 0 0 0 0 0 0 0
0 0 0 0 0 0 0 0 0 0 0 0 0 0 0 0 1 0 1 0 0 0 0 0 0 0 0 0 0 0 0 0 0 0 0 0 0 0
0 0 0 0 0 0 0 0 0 0 0 0 0 1 1 0 0 3 1 0 0 0 0 0 0 0 0 0 0 0 0 0 0 0 0 0 0 0
0 0 0 0 0 0 0 0 0 0 0 0 0 0 1 0 0 1 0 0 0 0 0 0 0 0 0 0 0 0 0 0 0 0 0 0 0 0
0 0 0 0 0 0 0 0 0 0 1 0 0 0 0 0 2 2 0 1 0 0 0 0 0 0 0 0 0 0 0 0 0 0 0 0 0 0
0 0 0 0 0 0 0 0 0 0 0 0 0 0 0 0 1 0 0 0 0 0 0 0 0 0 0 0 0 0 0 0 0 0 0 0 0 0
0 0 0 0 0 0 0 0 0 0 0 0 0 0 0 0 0 1 0 0 0 0 0 0 0 0 0 0 0 0 0 0 0 0 0 0 0 0
0 0 0 0 0 0 0 0 0 0 0 0 0 0 0 0 0 0 1 0 0 0 0 0 0 0 0 0 0 0 0 0 0 2 0 0 0 0
0 0 0 0 0 0 0 0 0 0 0 0 0 0 0 0 0 0 0 1 0 0 0 0 0 0 0 0 0 0 0 0 0 0 0 0 0 0
CIN
0 0 0 0 0 0 0 0 0 0 0 0 0 0 0 0 0 0 0 0 0 0 0 0 0 0 0 0 0 0 0 0 0 0 0 -1 -1 -1
0 0 0 0 0 0 0 0 0 0 0 0 0 0 0 0 0 0 0 0 0 0 0 0 0 0 0 0 0 0 0 0 0 0 -1 -1 -1 -1
0 0 0 0 0 0 0 0 0 0 0 0 0 0 0 0 0 0 0 0 0 0 0 0 0 0 0 0 0 0 0 0 0 0 0 -1 -1 -2
0 0 0 0 0 0 0 0 0 0 0 0 0 0 0 0 0 0 0 0 0 0 0 0 0 0 0 0 0 0 0 0 0 0 0 0 -1 -1
0 0 0 0 0 0 0 0 0 0 0 0 0 0 0 0 0 0 0 0 0 0 0 0 0 0 0 0 0 0 0 0 0 0 0 -6 0 -1
0 0 0 0 0 0 -3 -2 0 0 -33 -28 -21 -23 0 0 -5 -22 -3 0 0 0 0 0 0 0 0 0 0 0 0 0 0 -13 -12 -13 -8 -4
0 0 0 0 0 -16 -8 -20 -28 -23 -23 -1 0 0 0 0 0 0 0 0 0 0 0 0 0 0 0 0 0 0 0 0 0 0 -6 -3 -3 -3
0 0 0 0 0 -18 -21 -24 -19 -15 -1 0 0 0 0 0 0 0 0 0 -14 0 0 0 0 0 0 0 0 0 0 0 0 0 0 -6 -2 -3
0 0 0 0 0 0 0 0 0 0 0 0 0 0 0 0 0 0 0 0 0 0 0 0 0 0 0 0 0 0 0 0 0 0 0 -6 -6 -6
0 0 0 0 0 0 0 0 0 0 0 0 0 0 0 0 0 0 0 0 0 0 0 0 0 0 0 0 0 0 0 0 0 0 -4 -4 -6 -5
0 0 0 0 0 0 0 0 0 0 0 0 0 0 0 0 0 0 0 0 0 0 0 0 0 0 0 0 0 0 0 0 0 -1 -1 -3 -4 -12
0 0 0 0 0 0 0 0 0 0 0 0 0 0 0 0 0 0 0 0 0 0 0 0 0 0 0 0 0 0 0 0 0 0 0 -4 0 -4
0 0 0 0 0 0 0 0 0 0 0 0 0 0 0 0 -3 -2 0 0 0 0 0 0 0 0 0 0 0 0 0 0 0 0 0 0 0 -3
0 0 0 0 0 0 0 0 0 0 0 0 0 0 0 0 0 0 -1 0 0 0 0 0 0 0 0 0 0 0 0 0 0 0 0 0 0 0
0 0 0 0 0 0 0 0 0 0 0 0 0 -1 0 -1 0 -6 -5 0 0 0 0 0 0 0 0 0 0 0 0 0 0 0 0 0 0 0
0 0 0 0 0 0 0 0 0 0 0 -1 0 0 0 0 0 0 -1 0 0 0 0 0 0 0 0 0 0 0 0 0 0 0 0 0 0 0
0 0 0 0 0 0 0 0 0 0 0 0 0 0 0 0 0 0 -3 -3 0 0 0 0 0 0 0 0 0 0 0 0 0 0 0 0 0 0
0 0 0 0 0 0 0 0 0 0 0 0 0 0 0 0 0 -2 0 0 0 -1 0 0 0 0 0 0 0 0 0 0 0 0 0 0 0 0
0 0 0 0 0 0 0 0 0 0 0 -1 0 0 0 0 0 0 0 0 0 0 0 0 0 0 0 0 0 0 0 0 0 0 0 -2 0 0
0 0 0 0 0 0 0 0 0 0 0 0 0 0 0 0 0 0 0 0 0 0 0 0 0 0 0 0 0 0 0 0 0 0 0 0 0 0
0 0 0 0 0 0 0 0 0 0 0 0 0 0 0 0 0 0 0 0 0 0 0 0 0 0 0 0 0 0 0 0 0 0 0 0 0 0
0 0 0 0 0 0 0 0 0 0 0 0 0 0 0 0 0 0 0 0 0 0 0 0 0 0 0 0 0 0 0 0 -1 -12 0 0 0 0
0 0 0 0 0 0 0 0 0 0 0 0 0 0 0 0 0 0 0 0 0 0 0 0 0 0 0 0 0 0 0 0 0 -10 0 0 0 0
Wind_Speed
13 12 18 17 18 19 23 27 29 31 33 27 28 25 26 23 20 19 21 22 22 22 23 24 27 29 31 31 31 32 34 35 35 35 35 36 39 41
13 14 15 17 19 22 26 27 24 27 33 28 27 25 26 22 21 22 23 24 23 23 23 25 27 28 29 28 28 29 32 34 34 33 34 35 38 40
15 16 17 18 19 26 26 24 24 25 31 31 27 26 26 27 28 27 27 24 24 24 25 26 26 26 25 27 26 29 31 31 31 30 32 35 37 39
16 15 16 19 23 25 26 24 25 25 29 33 31 31 32 31 31 31 30 26 26 26 26 26 25 25 25 27 27 28 28 28 29 29 29 32 34 35
13 14 19 21 23 26 25 25 27 28 29 33 35 33 34 33 33 32 32 30 29 27 26 24 25 26 25 27 27 28 27 27 27 27 26 27 28 30
15 18 21 21 24 25 26 28 29 29 29 31 34 37 35 34 35 37 37 32 34 29 25 24 24 24 26 27 26 25 25 26 27 26 23 23 24 25
19 20 21 23 23 24 27 27 28 30 31 34 36 38 39 39 38 38 37 34 30 27 27 27 26 28 28 25 27 27 27 27 27 29 28 25 26 26
21 22 23 24 26 27 28 29 29 32 34 36 39 40 41 39 38 37 36 34 36 28 29 30 26 27 25 27 29 28 25 22 26 28 27 26 27 28
22 24 26 27 30 32 35 36 36 37 36 38 41 42 43 40 38 38 35 33 33 29 27 31 25 25 27 28 28 25 20 26 30 28 27 26 26 24
24 26 29 31 33 37 40 41 41 40 41 40 42 43 42 40 37 36 34 31 28 27 23 28 24 26 27 27 25 21 23 28 26 25 25 25 23 20
27 29 31 33 36 40 42 44 46 45 42 42 42 41 43 42 38 36 32 28 28 26 21 23 23 26 27 26 21 20 25 26 31 29 31 31 31 31
29 30 32 34 37 39 42 43 46 46 46 47 44 42 40 38 37 33 29 27 24 25 20 21 23 22 24 21 21 18 25 30 31 31 35 33 31 30
32 33 34 36 39 39 40 41 42 44 46 45 44 42 39 37 34 29 25 23 19 21 21 15 18 17 18 23 21 21 26 29 28 31 29 32 31 31
34 35 35 38 38 39 40 42 44 44 44 43 43 41 39 35 32 29 22 19 19 16 18 14 17 16 16 21 24 24 26 29 24 26 29 26 30 29
33 36 38 39 39 38 41 43 43 44 45 44 43 40 38 36 31 28 22 16 15 15 15 12 12 14 16 21 25 27 29 27 25 21 29 27 29 27
34 37 38 38 38 40 41 42 42 43 43 42 41 40 38 35 31 23 21 13 11 13 11 10 11 12 15 17 22 25 26 23 24 30 29 27 26 25
35 37 39 40 42 43 43 43 43 43 42 41 41 41 38 34 31 22 15 11 11 10 12 10 10 9 13 18 20 21 22 25 23 24 24 28 26 23
36 38 40 42 44 45 45 45 44 42 41 41 40 40 37 33 28 17 17 11 9 11 11 10 9 14 19 22 11 15 19 13 17 21 23 26 26 25
37 38 40 42 44 44 44 44 44 41 40 39 40 38 37 33 26 14 11 11 12 13 13 10 10 12 15 15 18 8 9 14 19 23 23 23 27 27
36 38 40 41 42 43 43 42 41 40 39 39 38 36 34 32 35 11 8 10 13 15 14 11 9 10 14 15 20 19 11 18 21 22 20 22 25 24
37 38 39 40 41 41 40 39 38 38 37 37 35 32 32 33 32 28 11 10 13 14 15 10 7 13 20 14 17 20 22 12 8 17 16 18 24 21
38 39 38 39 40 40 39 37 38 37 35 34 32 31 31 32 30 29 28 19 16 15 14 13 11 11 12 14 18 20 22 18 16 7 4 4 14 20
38 37 38 39 39 38 36 37 37 34 33 31 31 32 32 33 31 30 29 29 21 19 14 12 10 12 13 15 17 20 21 24 22 22 21 5 10 12
Wind_Direction
315 316 313 317 316 316 317 318 313 314 316 317 315 317 319 316 310 307 308 307 306 309 311 314 318 320 323 322 322 324 324 323 320 318 317 316 312 309
314 318 320 318 316 317 317 316 310 309 311 318 316 318 319 318 315 309 308 306 302 304 305 310 314 318 322 322 322 323 323 323 322 321 320 316 312 310
326 317 320 323 321 322 321 317 313 312 312 317 317 318 316 314 312 312 310 304 303 300 302 307 310 314 317 319 320 321 321 321 321 321 321 318 314 311
323 323 322 324 322 323 322 318 317 315 314 313 317 315 311 310 308 308 310 302 300 300 299 303 307 309 313 317 317 318 318 319 319 318 318 318 319 317
327 325 324 324 325 327 325 320 318 318 316 315 315 315 313 312 308 307 308 303 302 299 297 300 304 309 313 315 316 317 317 317 317 316 315 317 319 319
331 328 328 326 326 325 324 322 320 318 317 315 315 315 315 316 312 310 309 307 304 306 300 304 308 310 313 316 316 318 317 317 316 315 314 315 317 317
331 330 329 327 327 325 325 324 322 320 318 315 314 315 315 315 314 313 309 308 308 309 304 308 312 310 312 316 319 320 318 318 318 318 318 318 317 316
331 332 333 332 329 326 324 321 317 316 315 315 314 313 313 313 313 310 309 306 305 306 304 305 308 308 312 315 318 318 318 320 319 318 320 321 320 319
335 334 333 336 338 335 331 330 329 326 322 319 316 316 314 313 312 310 307 304 303 306 306 307 309 309 314 317 318 318 317 319 317 320 322 323 321 321
340 339 337 334 334 332 329 327 325 324 322 321 318 317 316 314 309 307 304 302 303 305 305 306 310 309 316 320 318 318 319 318 322 324 327 326 325 323
337 337 335 333 332 332 330 327 326 325 325 322 319 316 315 313 313 309 302 298 299 302 300 304 310 314 316 318 321 320 318 320 318 324 323 322 322 318
336 337 337 335 334 334 332 330 328 328 329 328 327 324 323 318 313 306 300 289 294 305 304 303 309 316 319 323 321 322 319 317 319 321 316 318 318 317
333 334 336 336 335 335 335 333 331 330 329 329 328 327 326 326 321 314 303 293 283 294 308 305 315 318 318 319 322 321 320 323 324 322 323 313 311 307
333 334 335 335 336 336 337 337 337 336 333 331 331 330 328 327 327 323 309 289 291 294 305 300 309 314 316 317 315 319 323 323 330 328 319 322 310 303
335 334 335 335 336 338 339 339 339 339 337 334 332 331 329 329 323 324 317 299 279 291 295 298 308 316 318 316 313 316 316 326 328 335 319 318 311 305
336 335 336 336 338 338 339 340 341 341 339 338 336 334 331 328 327 321 318 300 292 295 297 298 301 308 316 318 316 313 317 328 330 313 314 318 312 306
333 335 335 336 336 337 338 340 341 342 341 340 338 337 333 329 328 323 313 298 287 295 307 304 304 308 315 316 313 317 322 323 331 329 326 311 304 306
331 332 333 335 335 337 337 338 341 341 341 341 340 338 336 332 330 324 328 330 313 310 313 312 307 312 309 309 321 328 328 345 346 333 329 311 301 293
332 332 333 334 335 337 338 339 338 340 340 341 340 340 340 334 328 321 310 315 311 312 314 313 311 312 313 315 317 350 349 346 337 323 320 318 287 278
332 332 332 334 336 337 338 339 339 339 339 340 341 342 343 336 312 321 313 315 314 312 315 314 309 311 313 312 309 320 352 334 329 321 327 315 300 293
331 331 332 334 336 337 337 338 338 338 338 339 341 341 341 329 307 305 321 316 312 308 310 311 311 309 300 315 313 314 317 351 11 337 343 332 303 312
330 330 332 334 335 336 336 337 337 337 338 338 339 337 329 320 310 298 296 308 308 305 309 311 315 315 314 310 311 315 312 331 343 25 61 43 333 310
329 331 332 333 335 335 336 335 335 335 336 337 335 331 316 306 301 297 295 293 301 301 304 303 305 307 305 306 313 312 311 301 312 318 329 67 180 185